[[{"header":{"parameterUnit":"m.s-1","parameterCategory":1,"la1":30.2992,"la2":30.254,"lo1":-89.0895,"lo2":-89.0443,"dy":0.0025,"dx":0.0025,"nx":19,"ny":19,"refTime":"2026-05-07T03:00:00:Z","depth":0,"parameterNumber":2,"parameterNumberName":"U-component_of_WINDS"},"data":[0,0,0,3.558,3.5582,3.5666,3.5666,3.5783,3.5784,0,0,0,0,0,0,0,0,0,0,0,3.5562,3.5563,3.558,3.5583,3.5666,3.5666,3.5783,3.5784,0,0,0,0,0,0,0,0,0,0,0,3.5561,3.5563,3.5564,3.5583,3.5666,3.5666,3.5782,3.5716,0,0,0,0,0,0,0,0,0,0,3.5633,3.5622,3.5562,3.5564,3.5583,3.5666,3.5666,3.5712,3.572,3.5749,0,3.5777,0,3.5782,3.5792,3.5793,0,0,0,3.5578,3.5616,3.5633,3.5564,3.5584,3.5666,3.5627,3.5717,3.5725,3.5759,3.5779,3.5783,3.5784,3.5793,3.5794,3.5979,3.598,0,0,3.5573,3.558,3.5627,3.5639,3.5626,3.5624,3.563,3.5721,3.5743,3.5779,3.5785,3.5786,3.5794,3.5795,3.5978,3.5979,0,0,0,3.5563,3.5577,3.5592,3.5634,3.5648,3.5627,3.5633,3.5739,3.5743,3.5786,3.5788,3.5795,3.5796,3.5976,3.5978,3.6038,0,0,0,3.556,3.5571,3.559,3.5595,3.5647,3.5695,3.5648,3.5737,3.5747,3.5787,3.5795,3.5798,3.5975,3.5977,3.6034,3.6065,0,0,0,3.5554,3.557,3.5585,3.5595,3.5631,3.5693,3.5702,3.5739,3.5748,3.5793,3.5798,3.5974,3.5977,3.603,3.6059,3.6116,0,0,0,3.555,3.5637,3.5586,3.5683,3.5631,3.573,3.5702,3.5775,3.5821,3.5795,3.5975,3.5978,3.6029,3.6055,3.6112,3.6165,3.6188,0,0,3.5663,3.5651,3.5707,3.5664,3.5774,3.5716,3.5835,3.587,3.5868,3.5942,3.5946,3.6035,3.6059,3.6115,3.6313,3.6331,0,0,0,3.5746,3.5787,3.5814,3.5858,3.5887,3.5915,3.5931,3.5944,3.6007,3.5908,3.6071,3.6085,3.6117,3.6142,3.6158,3.6185,3.599,3.5989,3.5989,3.5916,3.5909,3.6002,3.6005,3.6048,3.6064,3.6099,3.6119,3.6099,3.6138,3.6159,3.628,3.631,3.6321,3.635,3.6187,3.6187,3.6187,3.6187,3.6081,3.6138,3.611,3.619,3.6182,3.625,3.6269,3.6252,3.6314,3.6263,3.6292,3.6238,3.6342,3.6366,3.6192,3.6191,3.6191,3.619,3.619,3.6192,3.6218,3.6233,3.6296,3.6345,3.6345,3.6405,3.6395,3.6387,3.6415,3.6437,3.6436,3.6433,3.6426,3.6426,3.6427,3.6427,3.6427,3.6428,3.6301,3.6316,3.6368,3.6407,3.6433,3.6468,3.6485,3.6511,3.6537,3.6525,3.6526,3.6502,3.6353,3.6316,3.6434,3.6433,3.6432,3.6432,3.6431,3.6472,3.6432,3.6512,3.654,3.6584,3.6633,3.662,3.6674,3.6694,3.6725,3.6695,3.6586,3.6573,3.656,3.653,3.6696,3.6696,3.6696,3.6696,3.6565,3.6557,3.6638,3.6682,3.6724,3.672,3.6811,3.6825,3.6833,3.6845,3.682,3.6778,3.6766,3.6759,3.6743,3.6714,3.6923,3.6924,3.6924,3.6669,3.6665,3.6745,3.6753,3.6787,3.6816,3.6901,3.6953,3.6953,3.6933,3.6854,3.6845,3.6777,3.6756,3.6733,3.6708,3.6654,0,0]},{"header":{"parameterUnit":"m.s-1","parameterCategory":1,"la1":30.2992,"la2":30.254,"lo1":-89.0895,"lo2":-89.0443,"dy":0.0025,"dx":0.0025,"nx":19,"ny":19,"refTime":"2026-05-07T03:00:00:Z","depth":0,"parameterNumber":3,"parameterNumberName":"V-component_of_WINDS"},"data":[0,0,0,3.3942,3.3945,3.4081,3.4081,3.4261,3.4263,0,0,0,0,0,0,0,0,0,0,0,3.3906,3.3908,3.3942,3.3946,3.4081,3.4081,3.4261,3.4263,0,0,0,0,0,0,0,0,0,0,0,3.3906,3.3907,3.3909,3.3946,3.4081,3.4081,3.4261,3.4156,0,0,0,0,0,0,0,0,0,0,3.4024,3.3994,3.3907,3.3909,3.3947,3.408,3.4081,3.4151,3.4163,3.4203,0,3.424,0,3.4254,3.4275,3.4276,0,0,0,3.3943,3.3984,3.4017,3.3909,3.3948,3.408,3.4019,3.4157,3.4171,3.4219,3.4242,3.4249,3.4257,3.4277,3.4278,3.4521,3.4522,0,0,3.3935,3.3933,3.4008,3.4026,3.4005,3.4015,3.4023,3.4165,3.4191,3.4243,3.4253,3.426,3.4278,3.4279,3.452,3.4521,0,0,0,3.3916,3.3928,3.3957,3.4019,3.4043,3.4019,3.4028,3.4185,3.4194,3.4255,3.4262,3.4279,3.4281,3.4519,3.4521,3.4583,0,0,0,3.3911,3.3916,3.3954,3.3954,3.404,3.4115,3.4045,3.4185,3.4201,3.4261,3.4279,3.4283,3.4517,3.452,3.4579,3.4614,0,0,0,3.3896,3.3915,3.3935,3.3953,3.4011,3.4113,3.4131,3.4188,3.4206,3.4276,3.4284,3.4516,3.4519,3.4574,3.4607,3.468,0,0,0,3.388,3.3988,3.3936,3.4061,3.401,3.415,3.413,3.4234,3.4302,3.428,3.4517,3.452,3.4573,3.4603,3.4676,3.4743,3.477,0,0,3.4015,3.4004,3.4078,3.4035,3.4184,3.413,3.4288,3.4352,3.436,3.4467,3.4473,3.458,3.4607,3.4679,3.4917,3.4939,0,0,0,3.412,3.4173,3.4213,3.4278,3.4329,3.4377,3.4417,3.4441,3.4532,3.4414,3.4624,3.464,3.4683,3.4716,3.4734,3.4772,3.4534,3.4534,3.4534,3.4311,3.4316,3.4438,3.4461,3.4523,3.4564,3.4616,3.4655,3.4641,3.4691,3.4724,3.4867,3.4905,3.4919,3.4959,3.4757,3.4757,3.4757,3.4758,3.4512,3.459,3.4569,3.4681,3.4686,3.478,3.4823,3.481,3.4899,3.4843,3.488,3.4821,3.4943,3.4978,3.4762,3.4761,3.4761,3.476,3.476,3.4641,3.4679,3.4706,3.4801,3.4874,3.4892,3.4979,3.4979,3.498,3.5017,3.5054,3.5053,3.5055,3.5034,3.5035,3.5035,3.5035,3.5036,3.5036,3.4764,3.4792,3.4866,3.4931,3.4973,3.5029,3.5071,3.5113,3.516,3.5154,3.5154,3.5137,3.4952,3.4908,3.5044,3.5043,3.5042,3.5041,3.504,3.4973,3.4926,3.5039,3.5082,3.5159,3.5233,3.5231,3.5317,3.5352,3.5395,3.5369,3.5232,3.5221,3.5206,3.517,3.5366,3.5366,3.5366,3.5366,3.5083,3.5077,3.5195,3.5263,3.533,3.5341,3.5471,3.5505,3.5532,3.5554,3.5525,3.5475,3.546,3.5458,3.5439,3.5405,3.5656,3.5656,3.5657,3.5213,3.5214,3.5325,3.5351,3.5411,3.5463,3.5586,3.5666,3.5687,3.5669,3.5572,3.556,3.548,3.5453,3.5436,3.5404,3.5342,0,0]}]]